TimeEDT,TemperatureF,Dew PointF,Humidity,Sea Level PressureIn,VisibilityMPH,Wind Direction,Wind SpeedMPH,Gust SpeedMPH,PrecipitationIn,Events,Conditions,WindDirDegrees,DateUTC
12:53 AM,35.1,30.9,85,30.29,10.0,Calm,Calm,-,N/A,,Clear,0,2013-05-06 04:53:00
1:53 AM,34.0,30.0,85,30.28,10.0,Calm,Calm,-,N/A,,Partly Cloudy,0,2013-05-06 05:53:00
2:24 AM,33.8,30.2,87,30.28,10.0,Calm,Calm,-,N/A,,Mostly Cloudy,0,2013-05-06 06:24:00
2:41 AM,33.8,30.2,87,30.27,10.0,Calm,Calm,-,N/A,,Scattered Clouds,0,2013-05-06 06:41:00
2:53 AM,33.1,28.9,85,30.27,10.0,Calm,Calm,-,N/A,,Mostly Cloudy,0,2013-05-06 06:53:00
3:29 AM,32.0,28.4,87,30.27,10.0,Calm,Calm,-,N/A,,Scattered Clouds,0,2013-05-06 07:29:00
3:42 AM,32.0,28.4,87,30.27,10.0,Calm,Calm,-,N/A,,Mostly Cloudy,0,2013-05-06 07:42:00
3:51 AM,32.0,28.4,87,30.26,10.0,Calm,Calm,-,N/A,,Mostly Cloudy,0,2013-05-06 07:51:00
3:53 AM,32.0,28.9,88,30.27,10.0,Calm,Calm,-,N/A,,Overcast,0,2013-05-06 07:53:00
4:33 AM,30.2,28.4,93,30.27,10.0,Calm,Calm,-,N/A,,Overcast,0,2013-05-06 08:33:00
4:53 AM,30.9,28.0,89,30.27,10.0,Calm,Calm,-,N/A,,Overcast,0,2013-05-06 08:53:00
5:48 AM,30.2,28.4,93,30.28,6.0,Calm,Calm,-,N/A,,Overcast,0,2013-05-06 09:48:00
5:53 AM,32.0,28.9,88,30.28,4.0,Calm,Calm,-,N/A,,Overcast,0,2013-05-06 09:53:00
6:05 AM,32.0,30.2,93,30.28,1.2,Calm,Calm,-,N/A,,Overcast,0,2013-05-06 10:05:00
6:13 AM,32.0,30.2,93,30.28,0.5,Calm,Calm,-,N/A,Fog,Fog,0,2013-05-06 10:13:00
6:48 AM,35.6,33.8,93,30.29,1.5,Calm,Calm,-,N/A,,Overcast,0,2013-05-06 10:48:00
6:50 AM,35.6,33.8,93,30.29,4.0,Calm,Calm,-,N/A,,Overcast,0,2013-05-06 10:50:00
6:53 AM,36.0,35.1,97,30.29,7.0,Calm,Calm,-,N/A,,Overcast,0,2013-05-06 10:53:00
7:02 AM,37.4,35.6,93,30.29,1.5,Calm,Calm,-,N/A,,Overcast,0,2013-05-06 11:02:00
7:09 AM,39.2,37.4,93,30.30,1.0,Calm,Calm,-,N/A,,Mist,0,2013-05-06 11:09:00
7:11 AM,39.2,39.2,100,30.30,1.5,Calm,Calm,-,N/A,,Overcast,0,2013-05-06 11:11:00
7:14 AM,41.0,39.2,93,30.30,4.0,Calm,Calm,-,N/A,,Overcast,0,2013-05-06 11:14:00
7:33 AM,44.6,42.8,93,30.30,-9999.0,Calm,Calm,-,N/A,,Scattered Clouds,0,2013-05-06 11:33:00
7:53 AM,48.0,44.1,86,30.30,10.0,Calm,Calm,-,N/A,,Clear,0,2013-05-06 11:53:00
8:53 AM,52.0,42.1,69,30.30,10.0,Variable,3.5,-,N/A,,Clear,0,2013-05-06 12:53:00
9:53 AM,55.0,39.0,55,30.30,10.0,SSW,9.2,-,N/A,,Clear,210,2013-05-06 13:53:00
10:53 AM,57.0,39.0,51,30.30,10.0,SSW,8.1,-,N/A,,Clear,210,2013-05-06 14:53:00
11:53 AM,59.0,41.0,51,30.28,10.0,South,8.1,-,N/A,,Clear,170,2013-05-06 15:53:00
12:53 PM,59.0,43.0,55,30.26,10.0,SSE,9.2,-,N/A,,Clear,150,2013-05-06 16:53:00
1:53 PM,59.0,43.0,55,30.25,10.0,South,9.2,-,N/A,,Clear,180,2013-05-06 17:53:00
2:53 PM,59.0,42.1,53,30.24,10.0,South,12.7,19.6,N/A,,Clear,170,2013-05-06 18:53:00
3:53 PM,55.9,43.0,62,30.24,10.0,SSE,9.2,-,N/A,,Clear,160,2013-05-06 19:53:00
4:53 PM,54.0,44.1,69,30.22,10.0,SSE,6.9,-,N/A,,Clear,160,2013-05-06 20:53:00
5:53 PM,48.9,44.1,83,30.20,10.0,South,8.1,-,N/A,,Partly Cloudy,170,2013-05-06 21:53:00
6:13 PM,48.2,44.6,87,30.20,8.0,South,10.4,-,N/A,,Mostly Cloudy,170,2013-05-06 22:13:00
6:53 PM,46.9,44.1,90,30.20,4.0,South,4.6,-,N/A,,Overcast,170,2013-05-06 22:53:00
7:01 PM,46.4,44.6,93,30.20,2.5,Variable,4.6,-,N/A,,Overcast,0,2013-05-06 23:01:00
7:16 PM,46.4,44.6,93,30.20,1.2,South,5.8,-,N/A,,Overcast,170,2013-05-06 23:16:00
7:32 PM,46.4,44.6,93,30.20,2.0,SSW,3.5,-,N/A,,Overcast,200,2013-05-06 23:32:00
7:36 PM,46.4,44.6,93,30.20,1.2,SSE,4.6,-,N/A,,Overcast,150,2013-05-06 23:36:00
7:53 PM,46.0,44.1,93,30.20,0.8,SSE,3.5,-,N/A,,Overcast,160,2013-05-06 23:53:00
8:12 PM,44.6,42.8,93,30.20,1.2,Calm,Calm,-,N/A,,Overcast,0,2013-05-07 00:12:00
8:21 PM,44.6,42.8,93,30.20,1.5,South,3.5,-,N/A,,Overcast,190,2013-05-07 00:21:00
8:46 PM,44.6,42.8,93,30.21,2.0,South,3.5,-,N/A,,Overcast,180,2013-05-07 00:46:00
8:53 PM,45.0,43.0,93,30.21,3.0,South,5.8,-,N/A,,Overcast,190,2013-05-07 00:53:00
9:53 PM,44.1,43.0,96,30.22,3.0,Variable,4.6,-,N/A,,Overcast,0,2013-05-07 01:53:00
10:00 PM,44.6,42.8,93,30.22,2.5,South,4.6,-,N/A,,Overcast,180,2013-05-07 02:00:00
10:16 PM,44.6,42.8,93,30.22,1.5,SSE,4.6,-,N/A,,Overcast,160,2013-05-07 02:16:00
10:46 PM,44.6,42.8,93,30.21,1.8,South,4.6,-,N/A,,Overcast,180,2013-05-07 02:46:00
10:53 PM,44.1,42.1,93,30.21,1.5,SSW,3.5,-,N/A,,Overcast,200,2013-05-07 02:53:00
11:03 PM,44.6,42.8,93,30.21,1.2,South,3.5,-,N/A,,Overcast,170,2013-05-07 03:03:00
11:15 PM,44.6,42.8,93,30.21,1.5,South,3.5,-,N/A,,Overcast,170,2013-05-07 03:15:00
11:36 PM,44.6,42.8,93,30.21,1.2,South,3.5,-,N/A,,Overcast,190,2013-05-07 03:36:00
11:53 PM,44.1,42.1,93,30.21,1.0,South,3.5,-,N/A,,Mist,190,2013-05-07 03:53:00